Year,Month,Day,Hour,Minute,Value (Times are PST for temperature in C)
2013,07,15,00,00,18.40
2013,07,15,00,01,18.40
2013,07,15,00,02,18.30
2013,07,15,00,03,18.30
2013,07,15,00,04,18.20
2013,07,15,00,05,18.10
2013,07,15,00,06,18.00
2013,07,15,00,07,18.00
2013,07,15,00,08,17.90
2013,07,15,00,09,17.90
2013,07,15,00,10,17.90
2013,07,15,00,11,17.90
2013,07,15,00,12,17.90
2013,07,15,00,13,17.90
2013,07,15,00,14,17.90
2013,07,15,00,15,17.80
2013,07,15,00,16,17.80
2013,07,15,00,17,17.80
2013,07,15,00,18,17.70
2013,07,15,00,19,17.70
2013,07,15,00,20,17.60
2013,07,15,00,21,17.60
2013,07,15,00,22,17.60
2013,07,15,00,23,17.50
2013,07,15,00,24,17.50
2013,07,15,00,25,17.50
2013,07,15,00,26,17.50
2013,07,15,00,27,17.40
2013,07,15,00,28,17.40
2013,07,15,00,29,17.40
2013,07,15,00,30,17.40
2013,07,15,00,31,17.30
2013,07,15,00,32,17.30
2013,07,15,00,33,17.30
2013,07,15,00,34,17.30
2013,07,15,00,35,17.30
2013,07,15,00,36,17.30
2013,07,15,00,37,17.30
2013,07,15,00,38,17.30
2013,07,15,00,39,17.30
2013,07,15,00,40,17.30
2013,07,15,00,41,17.30
2013,07,15,00,42,17.20
2013,07,15,00,43,17.20
2013,07,15,00,44,17.20
2013,07,15,00,45,17.10
2013,07,15,00,46,17.00
2013,07,15,00,47,17.00
2013,07,15,00,48,16.90
2013,07,15,00,49,16.80
2013,07,15,00,50,16.80
2013,07,15,00,51,16.80
2013,07,15,00,52,16.80
2013,07,15,00,53,16.80
2013,07,15,00,54,16.90
2013,07,15,00,55,16.90
2013,07,15,00,56,17.00
2013,07,15,00,57,17.00
2013,07,15,00,58,17.10
2013,07,15,00,59,17.10
2013,07,15,01,00,17.20
2013,07,15,01,01,17.20
2013,07,15,01,02,17.30
2013,07,15,01,03,17.30
2013,07,15,01,04,17.40
2013,07,15,01,05,17.40
2013,07,15,01,06,17.50
2013,07,15,01,07,17.60
2013,07,15,01,08,17.60
2013,07,15,01,09,17.70
2013,07,15,01,10,17.70
2013,07,15,01,11,17.80
2013,07,15,01,12,17.80
2013,07,15,01,13,17.80
2013,07,15,01,14,17.80
2013,07,15,01,15,17.80
2013,07,15,01,16,17.80
2013,07,15,01,17,17.90
2013,07,15,01,18,17.90
2013,07,15,01,19,17.90
2013,07,15,01,20,17.90
2013,07,15,01,21,18.00
2013,07,15,01,22,18.00
2013,07,15,01,23,18.00
2013,07,15,01,24,18.00
2013,07,15,01,25,18.00
2013,07,15,01,26,18.10
2013,07,15,01,27,18.10
2013,07,15,01,28,18.00
2013,07,15,01,29,18.10
2013,07,15,01,30,18.00
2013,07,15,01,31,18.00
2013,07,15,01,32,18.00
2013,07,15,01,33,18.00
2013,07,15,01,34,17.90
2013,07,15,01,35,17.90
2013,07,15,01,36,17.90
2013,07,15,01,37,17.90
2013,07,15,01,38,17.90
2013,07,15,01,39,17.90
2013,07,15,01,40,17.80
2013,07,15,01,41,17.80
2013,07,15,01,42,17.80
2013,07,15,01,43,17.80
2013,07,15,01,44,17.80
2013,07,15,01,45,17.80
2013,07,15,01,46,17.80
2013,07,15,01,47,17.80
2013,07,15,01,48,17.80
2013,07,15,01,49,17.80
2013,07,15,01,50,17.70
2013,07,15,01,51,17.70
2013,07,15,01,52,17.70
2013,07,15,01,53,17.70
2013,07,15,01,54,17.70
2013,07,15,01,55,17.70
2013,07,15,01,56,17.70
2013,07,15,01,57,17.70
2013,07,15,01,58,17.70
2013,07,15,01,59,17.70
2013,07,15,02,00,17.70
2013,07,15,02,01,17.70
2013,07,15,02,02,17.70
2013,07,15,02,03,17.70
2013,07,15,02,04,17.70
2013,07,15,02,05,17.70
2013,07,15,02,06,17.70
2013,07,15,02,07,17.70
2013,07,15,02,08,17.60
2013,07,15,02,09,17.60
2013,07,15,02,10,17.60
2013,07,15,02,11,17.60
2013,07,15,02,12,17.60
2013,07,15,02,13,17.60
2013,07,15,02,14,17.60
2013,07,15,02,15,17.50
2013,07,15,02,16,17.50
2013,07,15,02,17,17.50
2013,07,15,02,18,17.50
2013,07,15,02,19,17.40
2013,07,15,02,20,17.40
2013,07,15,02,21,17.50
2013,07,15,02,22,17.50
2013,07,15,02,23,17.50
2013,07,15,02,24,17.50
2013,07,15,02,25,17.40
2013,07,15,02,26,17.40
2013,07,15,02,27,17.40
2013,07,15,02,28,17.40
2013,07,15,02,29,17.40
2013,07,15,02,30,17.40
2013,07,15,02,31,17.40
2013,07,15,02,32,17.40
2013,07,15,02,33,17.40
2013,07,15,02,34,17.40
2013,07,15,02,35,17.40
2013,07,15,02,36,17.40
2013,07,15,02,37,17.40
2013,07,15,02,38,17.40
2013,07,15,02,39,17.40
2013,07,15,02,40,17.40
2013,07,15,02,41,17.40
2013,07,15,02,42,17.50
2013,07,15,02,43,17.50
2013,07,15,02,44,17.50
2013,07,15,02,45,17.50
2013,07,15,02,46,17.50
2013,07,15,02,47,17.50
2013,07,15,02,48,17.50
2013,07,15,02,49,17.50
2013,07,15,02,50,17.40
2013,07,15,02,51,17.40
2013,07,15,02,52,17.40
2013,07,15,02,53,17.40
2013,07,15,02,54,17.40
2013,07,15,02,55,17.40
2013,07,15,02,56,17.40
2013,07,15,02,57,17.30
2013,07,15,02,58,17.30
2013,07,15,02,59,17.30
2013,07,15,03,00,17.30
2013,07,15,03,01,17.30
2013,07,15,03,02,17.30
2013,07,15,03,06,17.30
2013,07,15,03,07,17.30
2013,07,15,03,08,17.20
2013,07,15,03,09,17.20
2013,07,15,03,10,17.20
2013,07,15,03,11,17.20
2013,07,15,03,12,17.20
2013,07,15,03,13,17.30
2013,07,15,03,14,17.30
2013,07,15,03,15,17.30
2013,07,15,03,16,17.30
2013,07,15,03,17,17.30
2013,07,15,03,18,17.30
2013,07,15,03,19,17.30
2013,07,15,03,20,17.30
2013,07,15,03,21,17.30
2013,07,15,03,22,17.20
2013,07,15,03,23,17.20
2013,07,15,03,24,17.20
2013,07,15,03,25,17.10
2013,07,15,03,26,17.10
2013,07,15,03,27,17.00
2013,07,15,03,28,17.00
2013,07,15,03,29,16.90
2013,07,15,03,30,16.90
2013,07,15,03,31,16.80
2013,07,15,03,32,16.80
2013,07,15,03,33,16.80
2013,07,15,03,34,16.80
2013,07,15,03,35,16.80
2013,07,15,03,36,16.70
2013,07,15,03,37,16.70
2013,07,15,03,38,16.70
2013,07,15,03,39,16.70
2013,07,15,03,40,16.70
2013,07,15,03,41,16.70
2013,07,15,03,42,16.70
2013,07,15,03,43,16.70
2013,07,15,03,44,16.70
2013,07,15,03,45,16.70
2013,07,15,03,46,16.70
2013,07,15,03,47,16.70
2013,07,15,03,48,16.70
2013,07,15,03,49,16.70
2013,07,15,03,50,16.70
2013,07,15,03,51,16.70
2013,07,15,03,52,16.70
2013,07,15,03,53,16.70
2013,07,15,03,54,16.70
2013,07,15,03,55,16.60
2013,07,15,03,56,16.60
2013,07,15,03,57,16.50
2013,07,15,03,58,16.40
2013,07,15,03,59,16.40
2013,07,15,04,00,16.30
2013,07,15,04,01,16.30
2013,07,15,04,02,16.20
2013,07,15,04,03,16.20
2013,07,15,04,04,16.20
2013,07,15,04,05,16.20
2013,07,15,04,06,16.30
2013,07,15,04,07,16.30
2013,07,15,04,08,16.30
2013,07,15,04,09,16.30
2013,07,15,04,10,16.30
2013,07,15,04,11,16.30
2013,07,15,04,12,16.40
2013,07,15,04,13,16.40
2013,07,15,04,14,16.40
2013,07,15,04,15,16.50
2013,07,15,04,16,16.50
2013,07,15,04,17,16.50
2013,07,15,04,18,16.60
2013,07,15,04,19,16.60
2013,07,15,04,20,16.60
2013,07,15,04,21,16.60
2013,07,15,04,22,16.60
2013,07,15,04,23,16.60
2013,07,15,04,24,16.60
2013,07,15,04,25,16.60
2013,07,15,04,26,16.70
2013,07,15,04,27,16.70
2013,07,15,04,28,16.70
2013,07,15,04,29,16.70
2013,07,15,04,30,16.70
2013,07,15,04,31,16.70
2013,07,15,04,32,16.70
2013,07,15,04,33,16.70
2013,07,15,04,34,16.80
2013,07,15,04,35,16.80
2013,07,15,04,36,16.80
2013,07,15,04,37,16.80
2013,07,15,04,38,16.80
2013,07,15,04,39,16.80
2013,07,15,04,40,16.80
2013,07,15,04,41,16.80
2013,07,15,04,42,16.80
2013,07,15,04,43,16.80
2013,07,15,04,44,16.80
2013,07,15,04,45,16.80
2013,07,15,04,46,16.80
2013,07,15,04,47,16.80
2013,07,15,04,48,16.80
2013,07,15,04,49,16.80
2013,07,15,04,50,16.80
2013,07,15,04,51,16.80
2013,07,15,04,52,16.80
2013,07,15,04,53,16.80
2013,07,15,04,54,16.80
2013,07,15,04,55,16.80
2013,07,15,04,56,16.80
2013,07,15,04,57,16.80
2013,07,15,04,58,16.80
2013,07,15,04,59,16.80
2013,07,15,05,00,16.80
2013,07,15,05,01,16.80
2013,07,15,05,02,16.80
2013,07,15,05,03,16.80
2013,07,15,05,04,16.80
2013,07,15,05,05,16.80
2013,07,15,05,06,16.80
2013,07,15,05,07,16.80
2013,07,15,05,08,16.80
2013,07,15,05,09,16.80
2013,07,15,05,10,16.70
2013,07,15,05,11,16.70
2013,07,15,05,12,16.60
2013,07,15,05,13,16.60
2013,07,15,05,14,16.60
2013,07,15,05,15,16.50
2013,07,15,05,16,16.50
2013,07,15,05,17,16.50
2013,07,15,05,18,16.40
2013,07,15,05,19,16.40
2013,07,15,05,20,16.40
2013,07,15,05,21,16.40
2013,07,15,05,22,16.30
2013,07,15,05,23,16.30
2013,07,15,05,24,16.30
2013,07,15,05,25,16.20
2013,07,15,05,26,16.20
2013,07,15,05,27,16.20
2013,07,15,05,28,16.10
2013,07,15,05,29,16.10
2013,07,15,05,30,16.10
2013,07,15,05,31,16.00
2013,07,15,05,32,16.00
2013,07,15,05,33,15.90
2013,07,15,05,34,15.90
2013,07,15,05,35,15.90
2013,07,15,05,36,15.90
2013,07,15,05,37,15.90
2013,07,15,05,38,15.90
2013,07,15,05,39,15.90
2013,07,15,05,40,15.80
2013,07,15,05,41,15.80
2013,07,15,05,42,15.80
2013,07,15,05,43,15.80
2013,07,15,05,44,15.70
2013,07,15,05,45,15.70
2013,07,15,05,46,15.70
2013,07,15,05,47,15.70
2013,07,15,05,48,15.60
2013,07,15,05,49,15.60
2013,07,15,05,50,15.60
2013,07,15,05,51,15.60
2013,07,15,05,52,15.50
2013,07,15,05,53,15.50
2013,07,15,05,54,15.50
2013,07,15,05,55,15.40
2013,07,15,05,56,15.40
2013,07,15,05,57,15.40
2013,07,15,05,58,15.40
2013,07,15,05,59,15.40
2013,07,15,06,00,15.40
2013,07,15,06,01,15.40
2013,07,15,06,02,15.40
2013,07,15,06,03,15.40
2013,07,15,06,04,15.40
2013,07,15,06,05,15.40
2013,07,15,06,06,15.30
2013,07,15,06,07,15.30
2013,07,15,06,08,15.30
2013,07,15,06,09,15.30
2013,07,15,06,10,15.30
2013,07,15,06,11,15.30
2013,07,15,06,12,15.30
2013,07,15,06,13,15.30
2013,07,15,06,14,15.30
2013,07,15,06,15,15.30
2013,07,15,06,16,15.30
2013,07,15,06,17,15.30
2013,07,15,06,18,15.30
2013,07,15,06,19,15.30
2013,07,15,06,20,15.30
2013,07,15,06,21,15.40
2013,07,15,06,22,15.40
2013,07,15,06,23,15.40
2013,07,15,06,24,15.50
2013,07,15,06,25,15.60
2013,07,15,06,26,15.60
2013,07,15,06,27,15.70
2013,07,15,06,28,15.70
2013,07,15,06,29,15.70
2013,07,15,06,30,15.80
2013,07,15,06,31,15.80
2013,07,15,06,32,15.90
2013,07,15,06,33,15.90
2013,07,15,06,34,16.00
2013,07,15,06,35,16.10
2013,07,15,06,36,16.10
2013,07,15,06,37,16.10
2013,07,15,06,38,16.20
2013,07,15,06,39,16.20
2013,07,15,06,40,16.30
2013,07,15,06,41,16.30
2013,07,15,06,42,16.30
2013,07,15,06,43,16.30
2013,07,15,06,44,16.40
2013,07,15,06,45,16.40
2013,07,15,06,46,16.40
2013,07,15,06,47,16.40
2013,07,15,06,48,16.40
2013,07,15,06,49,16.40
2013,07,15,06,50,16.40
2013,07,15,06,51,16.40
2013,07,15,06,52,16.50
2013,07,15,06,53,16.50
2013,07,15,06,54,16.50
2013,07,15,06,55,16.50
2013,07,15,06,56,16.60
2013,07,15,06,57,16.60
2013,07,15,06,58,16.60
2013,07,15,06,59,16.60
2013,07,15,07,00,16.60
2013,07,15,07,01,16.70
2013,07,15,07,02,16.70
2013,07,15,07,03,16.70
2013,07,15,07,04,16.80
2013,07,15,07,05,16.80
2013,07,15,07,06,16.80
2013,07,15,07,07,16.80
2013,07,15,07,08,16.80
2013,07,15,07,09,16.90
2013,07,15,07,10,16.90
2013,07,15,07,11,17.00
2013,07,15,07,12,17.00
2013,07,15,07,13,17.10
2013,07,15,07,14,17.10
2013,07,15,07,15,17.10
2013,07,15,07,16,17.20
2013,07,15,07,17,17.20
2013,07,15,07,18,17.20
2013,07,15,07,19,17.30
2013,07,15,07,20,17.30
2013,07,15,07,21,17.30
2013,07,15,07,22,17.40
2013,07,15,07,23,17.40
2013,07,15,07,24,17.40
2013,07,15,07,25,17.50
2013,07,15,07,26,17.50
2013,07,15,07,27,17.50
2013,07,15,07,28,17.60
2013,07,15,07,29,17.60
2013,07,15,07,30,17.60
2013,07,15,07,31,17.70
2013,07,15,07,32,17.70
2013,07,15,07,33,17.70
2013,07,15,07,34,17.80
2013,07,15,07,35,17.80
2013,07,15,07,36,17.80
2013,07,15,07,37,17.80
2013,07,15,07,38,17.90
2013,07,15,07,39,17.90
2013,07,15,07,40,17.90
2013,07,15,07,41,18.00
2013,07,15,07,42,18.00
2013,07,15,07,43,18.00
2013,07,15,07,44,18.10
2013,07,15,07,45,18.10
2013,07,15,07,46,18.10
2013,07,15,07,47,18.10
2013,07,15,07,48,18.20
2013,07,15,07,49,18.20
2013,07,15,07,50,18.20
2013,07,15,07,51,18.20
2013,07,15,07,52,18.20
2013,07,15,07,53,18.30
2013,07,15,07,54,18.30
2013,07,15,07,55,18.30
2013,07,15,07,56,18.30
2013,07,15,07,57,18.30
2013,07,15,07,58,18.30
2013,07,15,07,59,18.30
2013,07,15,08,00,18.30
2013,07,15,08,01,18.30
2013,07,15,08,02,18.30
2013,07,15,08,03,18.30
2013,07,15,08,04,18.40
2013,07,15,08,05,18.40
2013,07,15,08,06,18.50
2013,07,15,08,07,18.60
2013,07,15,08,08,18.60
2013,07,15,08,09,18.60
2013,07,15,08,10,18.70
2013,07,15,08,11,18.70
2013,07,15,08,12,18.70
2013,07,15,08,13,18.70
2013,07,15,08,14,18.70
2013,07,15,08,15,18.80
2013,07,15,08,16,18.80
2013,07,15,08,17,18.80
2013,07,15,08,18,18.80
2013,07,15,08,19,18.90
2013,07,15,08,20,18.90
2013,07,15,08,21,18.90
2013,07,15,08,22,18.90
2013,07,15,08,23,18.90
2013,07,15,08,24,19.00
2013,07,15,08,25,19.00
2013,07,15,08,26,19.00
2013,07,15,08,27,19.00
2013,07,15,08,28,19.10
2013,07,15,08,29,19.20
2013,07,15,08,30,19.20
2013,07,15,08,31,19.20
2013,07,15,08,32,19.20
2013,07,15,08,33,19.30
2013,07,15,08,34,19.30
2013,07,15,08,35,19.30
2013,07,15,08,36,19.40
2013,07,15,08,37,19.50
2013,07,15,08,38,19.50
2013,07,15,08,39,19.60
2013,07,15,08,40,19.70
2013,07,15,08,41,19.70
2013,07,15,08,42,19.80
2013,07,15,08,43,19.90
2013,07,15,08,44,19.90
2013,07,15,08,45,20.00
2013,07,15,08,46,20.10
2013,07,15,08,47,20.10
2013,07,15,08,48,20.20
2013,07,15,08,49,20.20
2013,07,15,08,50,20.30
2013,07,15,08,51,20.30
2013,07,15,08,52,20.30
2013,07,15,08,53,20.30
2013,07,15,08,54,20.40
2013,07,15,08,55,20.40
2013,07,15,08,56,20.50
2013,07,15,08,57,20.60
2013,07,15,08,58,20.60
2013,07,15,08,59,20.60
2013,07,15,09,00,20.70
2013,07,15,09,01,20.70
2013,07,15,09,02,20.70
2013,07,15,09,03,20.70
2013,07,15,09,04,20.70
2013,07,15,09,05,20.80
2013,07,15,09,06,20.80
2013,07,15,09,07,20.80
2013,07,15,09,08,20.80
2013,07,15,09,09,20.80
2013,07,15,09,10,20.80
2013,07,15,09,11,20.80
2013,07,15,09,12,20.80
2013,07,15,09,13,20.80
2013,07,15,09,14,20.80
2013,07,15,09,15,20.80
2013,07,15,09,16,20.80
2013,07,15,09,17,20.80
2013,07,15,09,18,20.90
2013,07,15,09,19,20.90
2013,07,15,09,20,20.80
2013,07,15,09,21,20.70
2013,07,15,09,22,20.60
2013,07,15,09,23,20.50
2013,07,15,09,24,20.40
2013,07,15,09,25,20.40
2013,07,15,09,26,20.30
2013,07,15,09,27,20.30
2013,07,15,09,28,20.30
2013,07,15,09,29,20.30
2013,07,15,09,30,20.30
2013,07,15,09,31,20.30
2013,07,15,09,32,20.30
2013,07,15,09,33,20.30
2013,07,15,09,34,20.20
2013,07,15,09,35,20.20
2013,07,15,09,36,20.20
2013,07,15,09,37,20.20
2013,07,15,09,38,20.20
2013,07,15,09,39,20.20
2013,07,15,09,40,20.20
2013,07,15,09,41,20.20
2013,07,15,09,42,20.30
2013,07,15,09,43,20.40
2013,07,15,09,44,20.50
2013,07,15,09,45,20.60
2013,07,15,09,46,20.70
2013,07,15,09,47,20.80
2013,07,15,09,48,20.90
2013,07,15,09,49,20.90
2013,07,15,09,50,21.00
2013,07,15,09,51,21.10
2013,07,15,09,52,21.10
2013,07,15,09,53,21.20
2013,07,15,09,54,21.30
2013,07,15,09,55,21.30
2013,07,15,09,56,21.40
2013,07,15,09,57,21.40
2013,07,15,09,58,21.50
2013,07,15,09,59,21.50
2013,07,15,10,00,21.50
2013,07,15,10,01,21.50
2013,07,15,10,02,21.60
2013,07,15,10,03,21.60
2013,07,15,10,04,21.70
2013,07,15,10,05,21.70
2013,07,15,10,06,21.80
2013,07,15,10,07,21.80
2013,07,15,10,08,21.80
2013,07,15,10,09,21.80
2013,07,15,10,10,21.80
2013,07,15,10,11,21.90
2013,07,15,10,12,22.00
2013,07,15,10,13,22.00
2013,07,15,10,14,22.00
2013,07,15,10,15,22.10
2013,07,15,10,16,22.10
2013,07,15,10,17,22.10
2013,07,15,10,18,22.10
2013,07,15,10,19,22.10
2013,07,15,10,20,22.10
2013,07,15,10,21,22.20
2013,07,15,10,22,22.20
2013,07,15,10,23,22.20
2013,07,15,10,24,22.20
2013,07,15,10,25,22.10
2013,07,15,10,26,22.10
2013,07,15,10,27,22.10
2013,07,15,10,28,22.20
2013,07,15,10,29,22.20
2013,07,15,10,30,22.20
2013,07,15,10,31,22.20
2013,07,15,10,32,22.30
2013,07,15,10,33,22.30
2013,07,15,10,34,22.40
2013,07,15,10,35,22.40
2013,07,15,10,36,22.40
2013,07,15,10,37,22.40
2013,07,15,10,38,22.50
2013,07,15,10,39,22.50
2013,07,15,10,40,22.60
2013,07,15,10,41,22.70
2013,07,15,10,42,22.80
2013,07,15,10,43,22.80
2013,07,15,10,44,22.80
2013,07,15,10,45,22.80
2013,07,15,10,46,22.80
2013,07,15,10,47,22.70
2013,07,15,10,48,22.60
2013,07,15,10,49,22.60
2013,07,15,10,50,22.50
2013,07,15,10,51,22.40
2013,07,15,10,52,22.40
2013,07,15,10,53,22.40
2013,07,15,10,54,22.50
2013,07,15,10,55,22.60
2013,07,15,10,56,22.70
2013,07,15,10,57,22.80
2013,07,15,10,58,22.90
2013,07,15,10,59,23.00
2013,07,15,11,00,23.00
2013,07,15,11,01,23.10
2013,07,15,11,02,23.10
2013,07,15,11,03,23.20
2013,07,15,11,04,23.30
2013,07,15,11,05,23.30
2013,07,15,11,06,23.40
2013,07,15,11,07,23.40
2013,07,15,11,08,23.40
2013,07,15,11,09,23.40
2013,07,15,11,10,23.40
2013,07,15,11,11,23.40
2013,07,15,11,12,23.50
2013,07,15,11,13,23.50
2013,07,15,11,14,23.60
2013,07,15,11,15,23.60
2013,07,15,11,16,23.60
2013,07,15,11,17,23.60
2013,07,15,11,18,23.50
2013,07,15,11,19,23.50
2013,07,15,11,20,23.40
2013,07,15,11,21,23.40
2013,07,15,11,22,23.40
2013,07,15,11,23,23.40
2013,07,15,11,24,23.50
2013,07,15,11,25,23.60
2013,07,15,11,26,23.60
2013,07,15,11,27,23.60
2013,07,15,11,28,23.60
2013,07,15,11,29,23.70
2013,07,15,11,30,23.70
2013,07,15,11,31,23.70
2013,07,15,11,32,23.80
2013,07,15,11,33,23.80
2013,07,15,11,34,23.90
2013,07,15,11,35,23.90
2013,07,15,11,36,24.00
2013,07,15,11,37,24.10
2013,07,15,11,38,24.10
2013,07,15,11,39,24.00
2013,07,15,11,40,24.00
2013,07,15,11,41,23.90
2013,07,15,11,42,23.80
2013,07,15,11,43,23.70
2013,07,15,11,44,23.70
2013,07,15,11,45,23.70
2013,07,15,11,46,23.80
2013,07,15,11,47,23.90
2013,07,15,11,48,24.00
2013,07,15,11,49,24.00
2013,07,15,11,50,23.90
2013,07,15,11,51,23.80
2013,07,15,11,52,23.80
2013,07,15,11,53,23.80
2013,07,15,11,54,23.80
2013,07,15,11,55,23.80
2013,07,15,11,56,23.70
2013,07,15,11,57,23.70
2013,07,15,11,58,23.80
2013,07,15,11,59,23.90
2013,07,15,12,00,24.00
2013,07,15,12,01,24.10
2013,07,15,12,02,24.20
2013,07,15,12,03,24.20
2013,07,15,12,04,24.30
2013,07,15,12,05,24.30
2013,07,15,12,06,24.30
2013,07,15,12,07,24.40
2013,07,15,12,08,24.40
2013,07,15,12,09,24.50
2013,07,15,12,10,24.60
2013,07,15,12,11,24.60
2013,07,15,12,12,24.80
2013,07,15,12,13,24.90
2013,07,15,12,14,24.90
2013,07,15,12,15,25.00
2013,07,15,12,16,25.00
2013,07,15,12,17,25.10
2013,07,15,12,18,25.10
2013,07,15,12,19,25.10
2013,07,15,12,20,25.10
2013,07,15,12,21,25.10
2013,07,15,12,22,25.10
2013,07,15,12,23,25.20
2013,07,15,12,24,25.20
2013,07,15,12,25,25.30
2013,07,15,12,26,25.30
2013,07,15,12,27,25.40
2013,07,15,12,28,25.40
2013,07,15,12,29,25.40
2013,07,15,12,30,25.40
2013,07,15,12,31,25.30
2013,07,15,12,32,25.20
2013,07,15,12,33,25.10
2013,07,15,12,34,24.90
2013,07,15,12,35,24.80
2013,07,15,12,36,24.70
2013,07,15,12,37,24.60
2013,07,15,12,38,24.60
2013,07,15,12,39,24.60
2013,07,15,12,40,24.60
2013,07,15,12,41,24.60
2013,07,15,12,42,24.70
2013,07,15,12,43,24.70
2013,07,15,12,44,24.70
2013,07,15,12,45,24.70
2013,07,15,12,46,24.70
2013,07,15,12,47,24.60
2013,07,15,12,48,24.50
2013,07,15,12,49,24.40
2013,07,15,12,50,24.30
2013,07,15,12,51,24.30
2013,07,15,12,52,24.20
2013,07,15,12,53,24.20
2013,07,15,12,54,24.20
2013,07,15,12,55,24.20
2013,07,15,12,56,24.20
2013,07,15,12,57,24.20
2013,07,15,12,58,24.30
2013,07,15,12,59,24.40
2013,07,15,13,00,24.60
2013,07,15,13,01,24.80
2013,07,15,13,02,24.90
2013,07,15,13,03,24.90
2013,07,15,13,04,24.90
2013,07,15,13,05,24.80
2013,07,15,13,06,24.80
2013,07,15,13,07,24.80
2013,07,15,13,08,24.90
2013,07,15,13,09,25.00
2013,07,15,13,10,25.10
2013,07,15,13,11,25.20
2013,07,15,13,12,25.30
2013,07,15,13,13,25.40
2013,07,15,13,14,25.50
2013,07,15,13,15,25.70
2013,07,15,13,16,25.80
2013,07,15,13,17,26.00
2013,07,15,13,18,26.00
2013,07,15,13,19,25.90
2013,07,15,13,20,25.70
2013,07,15,13,21,25.50
2013,07,15,13,22,25.40
2013,07,15,13,23,25.30
2013,07,15,13,24,25.30
2013,07,15,13,25,25.30
2013,07,15,13,26,25.30
2013,07,15,13,27,25.20
2013,07,15,13,28,25.00
2013,07,15,13,29,24.90
2013,07,15,13,30,24.90
2013,07,15,13,31,24.80
2013,07,15,13,32,24.70
2013,07,15,13,33,24.70
2013,07,15,13,34,24.60
2013,07,15,13,35,24.50
2013,07,15,13,36,24.40
2013,07,15,13,37,24.30
2013,07,15,13,38,24.30
2013,07,15,13,39,24.30
2013,07,15,13,40,24.20
2013,07,15,13,41,24.30
2013,07,15,13,42,24.30
2013,07,15,13,43,24.20
2013,07,15,13,44,24.20
2013,07,15,13,45,24.10
2013,07,15,13,46,24.10
2013,07,15,13,47,24.10
2013,07,15,13,48,24.10
2013,07,15,13,49,24.20
2013,07,15,13,50,24.20
2013,07,15,13,51,24.20
2013,07,15,13,52,24.20
2013,07,15,13,53,24.20
2013,07,15,13,54,24.20
2013,07,15,13,55,24.20
2013,07,15,13,56,24.20
2013,07,15,13,57,24.20
2013,07,15,13,58,24.20
2013,07,15,13,59,24.20
2013,07,15,14,00,24.30
2013,07,15,14,01,24.50
2013,07,15,14,02,24.60
2013,07,15,14,03,24.60
2013,07,15,14,04,24.60
2013,07,15,14,05,24.60
2013,07,15,14,06,24.50
2013,07,15,14,07,24.50
2013,07,15,14,08,24.50
2013,07,15,14,09,24.50
2013,07,15,14,10,24.50
2013,07,15,14,11,24.60
2013,07,15,14,12,24.60
2013,07,15,14,13,24.60
2013,07,15,14,14,24.70
2013,07,15,14,15,24.70
2013,07,15,14,16,24.80
2013,07,15,14,17,24.80
2013,07,15,14,18,24.90
2013,07,15,14,19,24.90
2013,07,15,14,20,24.90
2013,07,15,14,21,25.00
2013,07,15,14,22,25.00
2013,07,15,14,23,25.00
2013,07,15,14,24,25.00
2013,07,15,14,25,25.10
2013,07,15,14,26,25.10
2013,07,15,14,27,25.10
2013,07,15,14,28,25.20
2013,07,15,14,29,25.20
2013,07,15,14,30,25.20
2013,07,15,14,31,25.20
2013,07,15,14,32,25.20
2013,07,15,14,33,25.20
2013,07,15,14,34,25.30
2013,07,15,14,35,25.30
2013,07,15,14,36,25.40
2013,07,15,14,37,25.50
2013,07,15,14,38,25.50
2013,07,15,14,39,25.60
2013,07,15,14,40,25.70
2013,07,15,14,41,25.80
2013,07,15,14,42,25.90
2013,07,15,14,43,25.90
2013,07,15,14,44,26.00
2013,07,15,14,45,25.90
2013,07,15,14,46,25.90
2013,07,15,14,47,25.90
2013,07,15,14,48,25.90
2013,07,15,14,49,25.90
2013,07,15,14,50,25.90
2013,07,15,14,51,25.90
2013,07,15,14,52,25.90
2013,07,15,14,53,25.90
2013,07,15,14,54,25.90
2013,07,15,14,55,25.90
2013,07,15,14,56,25.90
2013,07,15,14,57,25.90
2013,07,15,14,58,25.90
2013,07,15,14,59,25.90
2013,07,15,15,00,25.90
2013,07,15,15,01,25.90
2013,07,15,15,02,25.80
2013,07,15,15,03,25.80
2013,07,15,15,04,25.80
2013,07,15,15,05,25.80
2013,07,15,15,06,25.90
2013,07,15,15,07,25.90
2013,07,15,15,08,25.90
2013,07,15,15,09,26.00
2013,07,15,15,10,26.10
2013,07,15,15,11,26.10
2013,07,15,15,12,26.20
2013,07,15,15,13,26.30
2013,07,15,15,14,26.40
2013,07,15,15,15,26.40
2013,07,15,15,16,26.50
2013,07,15,15,17,26.60
2013,07,15,15,18,26.70
2013,07,15,15,19,26.80
2013,07,15,15,20,26.80
2013,07,15,15,21,26.90
2013,07,15,15,22,26.90
2013,07,15,15,23,27.00
2013,07,15,15,24,27.10
2013,07,15,15,25,27.20
2013,07,15,15,26,27.30
2013,07,15,15,27,27.40
2013,07,15,15,28,27.50
2013,07,15,15,29,27.40
2013,07,15,15,30,27.40
2013,07,15,15,31,27.30
2013,07,15,15,32,27.20
2013,07,15,15,33,27.20
2013,07,15,15,34,27.10
2013,07,15,15,35,27.20
2013,07,15,15,36,27.20
2013,07,15,15,37,27.30
2013,07,15,15,38,27.40
2013,07,15,15,39,27.40
2013,07,15,15,40,27.40
2013,07,15,15,41,27.40
2013,07,15,15,42,27.40
2013,07,15,15,43,27.40
2013,07,15,15,44,27.30
2013,07,15,15,45,27.30
2013,07,15,15,46,27.30
2013,07,15,15,47,27.20
2013,07,15,15,48,27.10
2013,07,15,15,49,27.10
2013,07,15,15,50,27.00
2013,07,15,15,51,27.00
2013,07,15,15,52,26.90
2013,07,15,15,53,26.90
2013,07,15,15,54,26.90
2013,07,15,15,55,26.90
2013,07,15,15,56,26.90
2013,07,15,15,57,26.90
2013,07,15,15,58,27.00
2013,07,15,15,59,27.00
2013,07,15,16,00,27.00
2013,07,15,16,01,27.00
2013,07,15,16,02,27.00
2013,07,15,16,03,27.10
2013,07,15,16,04,27.10
2013,07,15,16,05,27.10
2013,07,15,16,06,27.20
2013,07,15,16,07,27.20
2013,07,15,16,08,27.20
2013,07,15,16,09,27.20
2013,07,15,16,10,27.20
2013,07,15,16,11,27.10
2013,07,15,16,12,27.10
2013,07,15,16,13,27.10
2013,07,15,16,14,27.10
2013,07,15,16,15,27.20
2013,07,15,16,16,27.20
2013,07,15,16,17,27.10
2013,07,15,16,18,27.10
2013,07,15,16,19,27.10
2013,07,15,16,20,27.10
2013,07,15,16,21,27.10
2013,07,15,16,22,27.00
2013,07,15,16,23,27.00
2013,07,15,16,24,26.90
2013,07,15,16,25,26.90
2013,07,15,16,26,26.80
2013,07,15,16,27,26.80
2013,07,15,16,28,26.80
2013,07,15,16,29,26.80
2013,07,15,16,30,26.80
2013,07,15,16,31,26.90
2013,07,15,16,32,26.90
2013,07,15,16,33,27.00
2013,07,15,16,34,27.00
2013,07,15,16,35,27.00
2013,07,15,16,36,27.10
2013,07,15,16,37,27.20
2013,07,15,16,38,27.30
2013,07,15,16,39,27.40
2013,07,15,16,40,27.50
2013,07,15,16,41,27.50
2013,07,15,16,42,27.60
2013,07,15,16,43,27.70
2013,07,15,16,44,27.70
2013,07,15,16,45,27.80
2013,07,15,16,46,27.90
2013,07,15,16,47,27.90
2013,07,15,16,48,28.00
2013,07,15,16,49,28.10
2013,07,15,16,50,28.20
2013,07,15,16,51,28.30
2013,07,15,16,52,28.30
2013,07,15,16,53,28.30
2013,07,15,16,54,28.20
2013,07,15,16,55,28.30
2013,07,15,16,56,28.30
2013,07,15,16,57,28.40
2013,07,15,16,58,28.40
2013,07,15,16,59,28.50
2013,07,15,17,00,28.50
2013,07,15,17,01,28.60
2013,07,15,17,02,28.60
2013,07,15,17,03,28.70
2013,07,15,17,04,28.70
2013,07,15,17,05,28.70
2013,07,15,17,06,28.60
2013,07,15,17,07,28.60
2013,07,15,17,08,28.60
2013,07,15,17,09,28.60
2013,07,15,17,10,28.50
2013,07,15,17,11,28.50
2013,07,15,17,12,28.40
2013,07,15,17,13,28.30
2013,07,15,17,14,28.30
2013,07,15,17,15,28.20
2013,07,15,17,16,28.20
2013,07,15,17,17,28.20
2013,07,15,17,18,28.20
2013,07,15,17,19,28.10
2013,07,15,17,20,28.00
2013,07,15,17,21,27.90
2013,07,15,17,22,27.90